This is the latest recevied weather packets stored in our database for station/object KE0LFX. If no packets are shown the sender has not sent any weather packets the latest 1 day(s).
| Time | Temp. | Humidity | Pressure | Rain* | Wind** | Luminosity | Snow |
|---|---|---|---|---|---|---|---|
| 1778061502 | 5° C | 66% | 1018.3 hPa | 0 mm | - | 0 W/m² | - |
| 1778060594 | 5° C | 67% | 1018.3 hPa | 0 mm | - | 0 W/m² | - |
| 1778060292 | 5° C | 67% | 1018.2 hPa | 0 mm | - | 0 W/m² | - |
| 1778059687 | 5° C | 67% | 1017.9 hPa | 0 mm | - | 0 W/m² | - |
| 1778059384 | 5° C | 67% | 1017.9 hPa | 0 mm | - | 0 W/m² | - |
| 1778059081 | 5° C | 66% | 1017.9 hPa | 0 mm | - | 0 W/m² | - |
| 1778058173 | 5° C | 66% | 1017.8 hPa | 0 mm | - | 0 W/m² | - |
| 1778057870 | 5° C | 66% | 1017.8 hPa | 0 mm | - | 0 W/m² | - |
| 1778057263 | 5° C | 66% | 1017.7 hPa | 0 mm | - | 0 W/m² | - |
| 1778056354 | 5° C | 67% | 1017.8 hPa | 0 mm | - | 0 W/m² | - |
| 1778054840 | 5.56° C | 66% | 1017.8 hPa | 0 mm | - | 0 W/m² | - |
| 1778054536 | 5.56° C | 65% | 1017.9 hPa | 0 mm | - | 0 W/m² | - |
| 1778054234 | 5.56° C | 64% | 1017.9 hPa | 0 mm | - | 0 W/m² | - |
| 1778053930 | 6.11° C | 63% | 1018 hPa | 0 mm | - | 0 W/m² | - |
| 1778053325 | 6.11° C | 62% | 1018 hPa | 0 mm | - | 0 W/m² | - |
| 1778052411 | 5.56° C | 62% | 1017.9 hPa | 0 mm | - | 0 W/m² | - |
| 1778052109 | 6.11° C | 62% | 1017.5 hPa | 0 mm | - | 0 W/m² | - |
| 1778051806 | 6.11° C | 61% | 1017.9 hPa | 0 mm | - | 0 W/m² | - |
| 1778051504 | 6.11° C | 61% | 1017.6 hPa | 0 mm | - | 0 W/m² | - |
| 1778050596 | 6.67° C | 58% | 1017.4 hPa | 0 mm | - | 0 W/m² | - |
| 1778050292 | 6.67° C | 59% | 1017.4 hPa | 0 mm | - | 0 W/m² | - |
| 1778049989 | 7.22° C | 58% | 1017.3 hPa | 0 mm | - | 0 W/m² | - |
| 1778049383 | 7.22° C | 56% | 1017.4 hPa | 0 mm | - | 0 W/m² | - |
| 1778048778 | 7.78° C | 55% | 1017 hPa | 0 mm | - | 0 W/m² | - |
| 1778048475 | 7.78° C | 55% | 1017.1 hPa | 0 mm | - | 0 W/m² | - |
* Rain latest hour (hover to see other rain measurements)
** Current wind speed in m/s (hover to see current wind gust speed)